Location: La Comballaz
(46.3780°N, 7.0817°E)
Time: 16:03:43
(UTC+00:00)

Cosmos 1763 Rocket - Pass Details

Date: 09 April 2020
Orbit: 734 x 779 km, 74.0° (Epoch: 02 June)

Event Time Altitude Azimuth Distance (km) Brightness Sun altitude
Rises 19:42:08 0° 343° (NNW) 3,228 7.5 -15.3°
Reaches altitude 10° 19:44:42 10° 352° (N) 2,291 6.5 -15.7°
Maximum altitude 19:49:30 37° 60° (ENE) 1,154 4.2 -16.4°
Enters shadow 19:51:28 27° 103° (ESE) 1,406 4.3 -16.7°
